Istanbul, Turkey

12:45 AM +03 on January 25, 2017 (GMT +0300)
Ataturk

Weather History for LTBA - October, 2011

Change the Weather History Date:

Monday, October 10, 2011

  Actual Average Record
Temperature  
Mean Temperature 63 °F -  
Max Temperature 68 °F 63 °F 75 °F (2001)
Min Temperature 58 °F 52 °F 50 °F (2010)
Degree Days  
Heating Degree Days 2    
Growing Degree Days 13 (Base 50)    
Moisture  
Dew Point 60 °F    
Average Humidity 92    
Maximum Humidity 100    
Minimum Humidity 78    
Precipitation  
Precipitation 0.55 in - - ()
Sea Level Pressure  
Sea Level Pressure 29.72 in    
Wind  
Wind Speed 16 mph ()    
Max Wind Speed 31 mph    
Max Gust Speed 43 mph    
Visibility 4.9 miles    
Events Rain , Thunderstorm    
Averages and records for this station are not official NWS values.
T = Trace of Precipitation, MM = Missing Value Source: Averaged Metar Reports

Daily Weather History Graph

Daily Weather History Graph

Search for Another Location

Airport or City:

Trip Planner

Search our weather history database for the weather conditions in past years. The results will help you decide how hot, cold, wet, or windy it might be!

Date:

Astronomy

Oct. 10, 2011 Rise Set
Actual Time 7:10 AM EEST 6:32 PM EEST
Civil Twilight 6:42 AM EEST 7:00 PM EEST
Nautical Twilight 6:10 AM EEST 7:32 PM EEST
Astronomical Twilight 5:38 AM EEST 8:04 PM EEST
Moon 5:27 PM EEST (10/10) 5:32 AM EEST (10/10)
Length of Visible Light 12h 17m
Length of Day
11h 22m
Waxing Gibbous, 97% of the Moon is Illuminated
Oct 10
Waxing Gibbous
Oct 12
Full
Oct 20
Last Quarter
Oct 26
New
Nov 2
First Quarter

Hourly Weather History & Observations

Time (EEST) Temp. Dew Point Humidity Pressure Visibility Wind Dir Wind Speed Gust Speed Precip Events Conditions
12:20 AM 60.8 °F 59.0 °F 94% 29.71 in 3.1 mi North 17.3 mph - N/A Rain , Thunderstorm Light Thunderstorms and Rain
12:50 AM 60.8 °F 59.0 °F 94% 29.74 in 6.2 mi North 15.0 mph - N/A   Mostly Cloudy
1:20 AM 60.8 °F 59.0 °F 94% 29.74 in 6.2 mi North 16.1 mph - N/A   Mostly Cloudy
1:50 AM 60.8 °F 59.0 °F 94% 29.74 in 5.0 mi North 16.1 mph - N/A Rain Light Rain Showers
2:20 AM 60.8 °F 57.2 °F 88% 29.74 in 4.3 mi North 18.4 mph - N/A Rain , Thunderstorm Light Thunderstorms and Rain
2:50 AM 59.0 °F 59.0 °F 100% 29.74 in 5.0 mi North 19.6 mph - N/A Rain , Thunderstorm Light Thunderstorms and Rain
3:00 AM 60 °F 58 °F 91% 29.75 in 5 mi North 19.6 mph - - Rain , Thunderstorm Thunderstorms and Rain
3:20 AM 59.0 °F 57.2 °F 94% 29.74 in 6.2 mi North 19.6 mph - N/A Rain Light Rain Showers
3:50 AM 59.0 °F 57.2 °F 94% 29.74 in 6.2 mi North 25.3 mph - N/A   Mostly Cloudy
4:20 AM 59.0 °F 57.2 °F 94% 29.74 in 6.2 mi North 20.7 mph - N/A   Mostly Cloudy
4:50 AM 59.0 °F 57.2 °F 94% 29.74 in 6.2 mi North 17.3 mph - N/A   Mostly Cloudy
5:20 AM 59.0 °F 59.0 °F 100% 29.74 in 6.2 mi North 16.1 mph - N/A   Mostly Cloudy
5:50 AM 60.8 °F 59.0 °F 94% 29.74 in 6.2 mi North 19.6 mph - N/A   Mostly Cloudy
6:20 AM 60.8 °F 59.0 °F 94% 29.74 in 6.2 mi North 13.8 mph - N/A   Mostly Cloudy
6:50 AM 60.8 °F 60.8 °F 100% 29.71 in 6.2 mi North 13.8 mph - N/A   Mostly Cloudy
7:20 AM 62.6 °F 60.8 °F 94% 29.71 in 6.2 mi North 13.8 mph - N/A   Mostly Cloudy
7:50 AM 62.6 °F 60.8 °F 94% 29.74 in 6.2 mi NNE 11.5 mph - N/A   Mostly Cloudy
8:20 AM 62.6 °F 60.8 °F 94% 29.74 in 6.2 mi NNE 11.5 mph - N/A   Mostly Cloudy
8:50 AM 62.6 °F 60.8 °F 94% 29.74 in 6.2 mi NNE 13.8 mph - N/A   Mostly Cloudy
9:00 AM 63 °F 60 °F 89% 29.75 in 6 mi NNE 13.8 mph - -   Partly Cloudy
9:20 AM 66.2 °F 60.8 °F 83% 29.74 in 6.2 mi NE 11.5 mph - N/A   Mostly Cloudy
9:50 AM 68.0 °F 60.8 °F 78% 29.74 in 6.2 mi Variable 13.8 mph 25.3 mph N/A   Mostly Cloudy
10:20 AM 66.2 °F 60.8 °F 83% 29.71 in 6.2 mi NNE 15.0 mph - N/A   Mostly Cloudy
10:50 AM 66.2 °F 60.8 °F 83% 29.71 in 6.2 mi NE 13.8 mph - N/A   Mostly Cloudy
11:20 AM 66.2 °F 62.6 °F 88% 29.71 in 6.2 mi ENE 13.8 mph - N/A Rain Light Rain Showers
11:50 AM 66.2 °F 62.6 °F 88% 29.71 in 6.2 mi NE 15.0 mph - N/A Rain Light Rain Showers
12:20 PM 66.2 °F 62.6 °F 88% 29.68 in 6.2 mi NE 16.1 mph - N/A   Mostly Cloudy
12:50 PM 68.0 °F 64.4 °F 88% 29.71 in 2.5 mi East 13.8 mph - N/A Rain Rain Showers
1:20 PM 66.2 °F 62.6 °F 88% 29.71 in 4.3 mi SSE 10.4 mph - N/A Rain Light Rain Showers
1:50 PM 66.2 °F 62.6 °F 88% 29.71 in 2.5 mi Variable 8.1 mph - N/A Rain Rain Showers
2:20 PM 60.8 °F 59.0 °F 94% 29.71 in 5.0 mi NNW 31.1 mph - N/A Rain Light Rain Showers
2:50 PM 60.8 °F 59.0 °F 94% 29.71 in 2.5 mi North 27.6 mph 39.1 mph N/A Rain Rain Showers
3:00 PM 60 °F 58 °F 93% 29.73 in 2 mi NNW 28.8 mph - - Rain Heavy Rain Showers
3:20 PM 59.0 °F 57.2 °F 94% 29.71 in 2.5 mi North 27.6 mph - N/A Rain , Thunderstorm Light Thunderstorms and Rain
3:50 PM 59.0 °F 57.2 °F 94% 29.74 in 3.1 mi North 27.6 mph - N/A Rain , Thunderstorm Light Thunderstorms and Rain
4:20 PM 59.0 °F 59.0 °F 100% 29.68 in 4.3 mi North 27.6 mph 42.6 mph N/A Rain Light Rain Showers
4:50 PM 60.8 °F 59.0 °F 94% 29.71 in 6.2 mi North 23.0 mph 34.5 mph N/A Rain Light Rain Showers
5:20 PM 60.8 °F 59.0 °F 94% 29.71 in 4.3 mi North 23.0 mph - N/A Rain Light Rain Showers
5:50 PM 60.8 °F 59.0 °F 94% 29.74 in 3.1 mi North 16.1 mph - N/A Rain Rain Showers
6:20 PM 60.8 °F 59.0 °F 94% 29.71 in 4.3 mi North 23.0 mph - N/A Rain Light Rain Showers
6:50 PM 62.6 °F 60.8 °F 94% 29.71 in 4.3 mi North 21.9 mph 35.7 mph N/A Rain Light Rain Showers
7:20 PM 62.6 °F 60.8 °F 94% 29.71 in 4.3 mi North 23.0 mph - N/A Rain Light Rain Showers
7:50 PM 62.6 °F 60.8 °F 94% 29.71 in 4.3 mi North 19.6 mph 31.1 mph N/A Rain Light Rain Showers
8:20 PM 62.6 °F 60.8 °F 94% 29.71 in 3.7 mi North 17.3 mph - N/A Rain Light Rain Showers
8:50 PM 64.4 °F 60.8 °F 88% 29.71 in 3.7 mi North 19.6 mph - N/A Rain Light Rain Showers
9:00 PM 64 °F 61 °F 87% 29.73 in 4 mi North 19.6 mph - - Rain Light Rain Showers
9:20 PM 64.4 °F 60.8 °F 88% 29.71 in 3.7 mi North 17.3 mph - N/A Rain Light Rain Showers
9:50 PM 64.4 °F 62.6 °F 94% 29.71 in 3.7 mi North 13.8 mph - N/A Rain Light Rain Showers
10:50 PM 66.2 °F 64.4 °F 94% 29.68 in 3.7 mi NNE 11.5 mph - N/A Rain Light Rain Showers
11:20 PM 66.2 °F 64.4 °F 94% 29.65 in 3.7 mi ENE 8.1 mph - N/A Rain Light Rain Showers